Location: Ch�teau-Arnoux
(44.0814°N, 6.0027°E)
Time: 21:09:48
(UTC+00:00)

USA 234 - Pass Details

Date: 15 November 2019
Orbit: 1099 x 1108 km, 123.0° (Epoch: 09 December)

Event Time Altitude Azimuth Distance (km) Brightness Sun altitude
Rises 05:20:14 0° 89° (E) 3,912 7.9 -12.7°
Reaches altitude 10° 05:22:54 10° 82° (E) 2,956 6.7 -12.3°
Maximum altitude 05:28:43 36° 18° (NNE) 1,662 4.3 -11.3°
Drops below altitude 10° 05:34:34 10° 315° (NW) 2,964 5.0 -10.3°
Enters shadow 05:35:01 - 313° (NW) 3,118 5.1 -10.2°
